Tracking 34719 objects as of 12-Jul-2026
HD Live streaming from Space Station
objects crossing your sky now

SL-12 R/B(AUX MOTOR)

Track SL-12 R/B(AUX MOTOR) now!
10-day predictions


NORAD ID: 16446
Int'l Code: 1985-118L
Perigee: 379.5 km
Apogee: 18,247.4 km
Inclination: 64.8 °
Period: 325.8 minutes
Semi major axis: 15684 km
RCS: 0.6158 m2 (medium)
Launch date: December 24, 1985
Source: Commonwealth of Independent States (former USSR) (CIS)
Launch site: TYURATAM MISSILE AND SPACE COMPLEX (TTMTR)

Note: This is a ROCKET BODY
Your satellite tracking list
Your tracking list is empty




NASA's NSSDC Master Catalog

Two Line Element Set (TLE):
1 16446U 85118L   26193.43734825  .00000236  00000-0  24713-3 0  9992
2 16446  64.8446 313.1976 5696041   8.9491 357.9180  4.41975970638991
Source of the keplerian elements: AFSPC